Location: Heilwood
(40.6210°N, 78.9150°W)
Time: 04:51:27
(UTC-05:00)

Daily predictions for brighter satellites

Satellite Brightness Start Highest point End
(mag) Time Altitude Azimuth Time Altitude Azimuth Time Altitude Azimuth
SL-16 R/B 4.4 04:27:06 16° NNE 04:27:06 16° NNE 04:28:06 10° NNE
USA 215 4.3 04:22:38 10° ENE 04:28:42 40° SE 04:32:45 20° S
CENTAUR R/B 3.9 04:41:20 28° N 04:41:20 28° N 04:45:05 10° NNE
USA 32 4.4 04:43:48 62° ESE 04:43:48 62° ESE 04:48:34 10° SSE
BREEZE-M DEB (TANK) 4.5 04:42:55 40° SSE 04:43:50 45° SE 04:53:47 10° ENE
Lacrosse 5 2.5 04:44:47 55° ESE 04:44:47 55° ESE 04:49:25 10° NE
SL-08 ROCKET BODY 4.4 04:38:39 10° S 04:44:35 75° E 04:50:28 10° N
Cosmos 2327 Rocket 4.4 04:54:15 10° S 05:00:38 87° W 05:06:58 10° N
Cosmos 1346 Rocket 4.4 05:05:51 27° SSE 05:05:51 27° SSE 05:07:42 10° SSE
Cosmos 2074 Rocket 3.8 05:03:48 10° SSW 05:10:03 70° W 05:16:19 10° N
Tiangong 2 3.2 05:13:30 26° ENE 05:13:30 26° ENE 05:15:06 10° E
Cosmos 2369 Rocket 2.9 05:14:29 20° N 05:18:24 53° ENE 05:23:56 10° SE
CRYOSAT 2 4.3 05:14:32 10° S 05:19:25 82° E 05:24:20 10° N
SKYMED 2 3.9 05:16:05 10° SSE 05:20:22 63° ENE 05:22:50 24° N
Cosmos 1603 3.6 05:18:59 47° WSW 05:20:27 63° WNW 05:26:06 10° NNE
SJ-6F 4.2 05:22:05 10° N 05:26:10 81° WNW 05:30:14 10° SSW
Cosmos 2184 Rocket 4.0 05:22:22 10° SSW 05:28:20 52° W 05:34:24 10° N
Celestis-02/Orion 38 4.5 05:23:18 10° SSE 05:28:29 82° WSW 05:31:02 32° NNW
NOAA 6 3.9 05:24:39 10° N 05:29:47 79° WNW 05:34:55 10° SSW
Cosmos 44 3.7 05:25:10 10° SSW 05:30:31 70° ESE 05:35:43 10° NE
Transit 2A Rocket 4.4 05:31:48 58° WNW 05:32:31 71° WSW 05:36:48 10° SSE
Cosmos 1536 2.9 05:36:37 10° S 05:40:34 74° E 05:44:35 10° NNE
USA 229 DEB 4.3 05:34:26 10° SSW 05:41:08 59° ESE 05:47:56 10° NE
USA 229 4.3 05:34:33 10° SSW 05:41:14 58° ESE 05:48:02 10° NE
Cosmos 1025 Rocket 3.5 05:38:51 10° N 05:43:11 60° E 05:47:28 10° SSE
Cosmos 1943 3.1 05:37:50 10° SSW 05:43:27 89° WNW 05:49:08 10° NNE
CZ-4 R/B 3.8 05:40:29 10° NE 05:43:40 23° E 05:46:49 10° SSE
Cosmos 2154 Rocket 3.9 05:38:03 10° SSW 05:44:15 76° W 05:50:28 10° N
Cosmos 1633 2.6 05:46:55 10° SSW 05:50:27 49° W 05:54:00 10° N
Abrixas rocket 2.6 05:55:53 41° NW 05:56:14 43° NNW 05:59:29 10° NE
Cosmos 1943 Rocket 2.9 05:51:23 10° NNW 05:56:44 50° ENE 06:02:04 10° SE
DELTA 2 R/B(2) 3.9 05:59:39 39° WSW 06:00:22 63° S 06:02:10 10° E
Cosmos 2056 Rocket 4.1 05:59:36 26° WNW 06:01:16 32° W 06:05:45 10° SSW
Okean 1 Rocket 3.4 05:57:45 10° SSW 06:01:53 39° WNW 06:06:01 10° N
CZ-3 R/B 3.3 05:55:49 10° SW 06:03:56 22° S 06:07:34 10° SE
Cosmos 1544 Rocket 4.4 05:59:59 10° S 06:04:12 52° E 06:08:28 10° NNE
Lacrosse 4 Rocket 3.0 06:03:24 10° N 06:07:07 31° NE 06:10:45 10° ESE
SL-16 R/B 4.1 06:09:01 11° NNW 06:09:01 11° NNW 06:09:44 10° NNW
COSMO-SKYMED 1 3.1 06:04:26 10° SSW 06:08:27 37° W 06:11:25 16° NW
USA 215 3.3 06:05:26 10° NE 06:11:50 60° NW 06:18:13 10° WSW
Ariane Rocket 3.0 06:07:51 10° N 06:12:49 58° WNW 06:17:46 10° SSW
SL-8 Rocket 4.1 06:07:21 10° S 06:13:38 85° E 06:19:53 10° N
Cosmos 1048 Rocket 4.4 06:10:33 10° S 06:15:36 66° ESE 06:20:46 10° NNE
CZ-2C R/B 3.6 06:10:51 10° NNE 06:15:51 48° E 06:20:41 10° S
Cosmos 44 Rocket 4.2 06:13:51 14° WSW 06:17:31 31° NW 06:22:02 10° NNE
Okean 1-7 Rocket 4.4 06:21:28 11° NNW 06:25:02 28° W 06:28:47 10° SSW
Cosmos 1975 4.2 06:21:59 10° SSE 06:25:53 44° E 06:29:49 10° NNE
Cosmos 2366 rocket 4.2 06:19:53 10° S 06:26:09 78° E 06:32:31 10° N
Cosmos 1959 Rocket 4.5 06:21:12 10° S 06:27:19 90° SE 06:33:28 10° N
Lacrosse 5 2.7 06:24:04 14° W 06:27:38 30° NNW 06:32:09 10° NNE
Cosmos 2263 4.3 06:22:45 10° NNW 06:28:16 58° WSW 06:33:43 10° S
Cosmos 1892 Rocket 3.5 06:24:42 10° NNW 06:29:10 75° W 06:33:37 10° S
Meteor 1-28 Rocket 3.9 06:26:39 10° SSW 06:30:08 34° W 06:33:38 10° NNW
Cosmos 1900 4.3 06:26:06 10° NW 06:30:57 67° WSW 06:35:50 10° SSE
CENTAUR R/B 4.4 06:28:32 10° NW 06:31:37 14° NNW 06:35:07 10° NNE
Helios 1B rocket 2.9 06:28:28 10° SSE 06:32:34 66° ENE 06:36:42 10° N
Cosmos 2218 Rocket 4.0 06:28:03 10° S 06:34:27 81° W 06:40:53 10° N
Cosmos 1340 2.9 06:37:58 10° NNW 06:41:37 47° W 06:45:16 10° S
IDEFIX/ARIANE 42P 2.7 06:36:48 10° NNE 06:42:02 82° ESE 06:47:14 10° S
Cosmos 1626 Rocket 4.5 06:37:45 10° N 06:42:05 51° E 06:46:21 10° SSE
CSL-04 Rocket 4.1 06:38:04 10° N 06:43:15 41° WNW 06:48:21 10° SW
Cosmos 1461 3.4 06:39:54 10° SSW 06:44:11 66° ESE 06:48:21 10° NE
Tiangong 2 1.4 06:45:33 10° WNW 06:48:37 59° SSW 06:51:43 10° ESE
SL-27 R/B 3.3 06:45:12 10° S 06:48:39 57° ESE 06:52:13 10° NNE
SJ-7 4.4 06:45:48 10° N 06:49:59 82° WNW 06:54:04 10° SSW
Cosmos 1452 Rocket 4.4 06:45:57 10° NW 06:50:25 29° W 06:54:53 10° SSW
Cosmos 2084 3.4 06:49:06 10° SW 06:52:51 47° NW 06:56:33 10° NNE
Cosmos 1455 Rocket 3.1 06:49:05 10° SSW 06:53:18 55° W 06:57:35 10° N
COSMOS 2406 3.4 06:52:14 10° SSW 06:57:52 80° ESE 07:03:35 10° NNE
Cosmos 1727 Rocket 4.0 06:52:55 10° NNW 06:59:04 72° W 07:05:14 10° S
NOSS 3-1 (C) 3.7 06:54:38 10° SSW 07:00:25 78° ESE 07:06:51 10° NE
Cosmos 2369 Rocket 3.5 06:57:46 10° NW 07:01:58 21° W 07:06:08 10° SSW
